Overview Statistics Trail Chart Weather Telemetry Raw packets
 

This is the latest recevied weather packets stored in our database for station/object SR8WXL-13. If no packets are shown the sender has not sent any weather packets the latest 10 day(s).

<< 9 10 11 12 13 14 15 >>
Time Temp. Humidity Pressure Rain* Wind** Luminosity Snow
1788434479 22.22° C 62% 1033.2 hPa 0 mm - - -
1788433633 22.22° C 63% 1033.2 hPa 0 mm - - -
1788432879 22.22° C 61% 1033.4 hPa 0 mm - - -
1788432104 22.22° C 67% 1033.5 hPa 0 mm - - -
1788431354 21.11° C 68% 1033.5 hPa 0 mm - - -
1788430480 21.11° C 67% 1033.6 hPa 0 mm - - -
1788429668 21.11° C 68% 1033.9 hPa 0 mm - - -
1788428786 21.11° C 67% 1033.9 hPa 0 mm - - -
1788428044 21.11° C 70% 1034.1 hPa 0 mm - - -
1788427310 20° C 72% 1034 hPa 0 mm - - -
1788426547 20° C 76% 1033.3 hPa 0 mm - - -
1788425805 18.89° C 75% 1034.1 hPa 0 mm - - -
1788424919 20° C 75% 1034.6 hPa 0 mm - - -
1788424035 18.89° C 78% 1034.5 hPa 0 mm - - -
1788423203 17.78° C 85% 1033.7 hPa 0 mm - - -
1788422445 16.11° C 90% 1034.5 hPa 0 mm - - -
1788421608 16.11° C 93% 1034.7 hPa 0 mm - - -
1788420794 16.11° C 95% 1034.7 hPa 0 mm - - -
1788419914 15° C 93% 1034.7 hPa 0.51 mm - - -
1788419016 15° C 95% 1034.1 hPa 0.76 mm - - -
1788418124 13.89° C 97% 1034 hPa 0.76 mm - - -
1788417270 12.78° C 98% 1034.2 hPa 1.02 mm - - -
1788416472 12.78° C 97% 1034.3 hPa 1.02 mm - - -
1788415664 12.78° C 97% 1034.4 hPa 1.27 mm - - -
1788414824 12.78° C 97% 1034.4 hPa 1.27 mm - - -

* Rain latest hour (hover to see other rain measurements)
** Current wind speed in m/s (hover to see current wind gust speed)